Retour au catalogue

STARLINK-32736

ActifCommunicationsVLEO
NORAD 62443·PAYLOAD·🇺🇸 United States

Lancé Dec 29, 2024 depuis Vandenberg Space Force Base

Loading…

Prochains Passages (prochaines 24 heures)

TLE

FraisSource: CelesTrak SupGP

Époque: Sep 14, 2026, 22:47 UTC

1 62443C 24251M   26257.94979167 -.00067959  00000+0 -20074-2 0  2576
2 62443  53.1583 175.5088 0001293  86.1334 321.1378 15.34432161    16

Suivez STARLINK-32736 en temps réel avec AllMySat

Download on the App Store